Time,TemperatureF,DewpointF,PressureIn,WindDirection,WindDirectionDegrees,WindSpeedMPH,WindSpeedGustMPH,Humidity,HourlyPrecipIn,Conditions,Clouds,dailyrainin,SoftwareType,DateUTC
2014-12-28 00:02:00,36.8,32.7,29.88,North,0,0.0,0.0,85,0.00,,SKC,0.00,VWS V14.01,2014-12-28 05:02:00,
2014-12-28 00:07:00,36.8,32.7,29.89,North,0,0.0,0.0,85,0.00,,SKC,0.00,VWS V14.01,2014-12-28 05:07:00,
2014-12-28 00:12:00,36.6,32.5,29.89,North,0,0.0,0.0,85,0.00,,SKC,0.00,VWS V14.01,2014-12-28 05:12:00,
2014-12-28 00:17:00,36.8,32.7,29.90,North,0,0.0,0.0,85,0.00,,SKC,0.00,VWS V14.01,2014-12-28 05:17:00,
2014-12-28 00:22:00,36.8,32.7,29.90,North,0,0.0,0.0,85,0.00,,SKC,0.00,VWS V14.01,2014-12-28 05:22:00,
2014-12-28 00:27:00,36.8,32.7,29.89,North,0,0.0,0.0,85,0.00,,SKC,0.00,VWS V14.01,2014-12-28 05:27:00,
2014-12-28 00:32:00,36.6,32.8,29.89,North,0,0.0,0.0,86,0.00,,SKC,0.00,VWS V14.01,2014-12-28 05:32:00,
2014-12-28 00:37:00,36.6,32.8,29.89,North,0,0.0,0.0,86,0.00,,SKC,0.00,VWS V14.01,2014-12-28 05:37:00,
2014-12-28 00:42:00,36.6,32.8,29.89,North,0,0.0,0.0,86,0.00,,SKC,0.00,VWS V14.01,2014-12-28 05:42:00,
2014-12-28 00:47:00,36.6,32.8,29.89,North,0,0.0,0.0,86,0.00,,SKC,0.00,VWS V14.01,2014-12-28 05:47:00,
2014-12-28 00:52:00,36.5,32.7,29.88,North,0,0.0,0.0,86,0.00,,SKC,0.00,VWS V14.01,2014-12-28 05:52:00,
2014-12-28 00:57:00,36.3,32.2,29.88,North,0,0.0,0.0,85,0.00,,SKC,0.00,VWS V14.01,2014-12-28 05:57:00,
2014-12-28 01:02:00,36.3,32.2,29.88,North,0,0.0,0.0,85,0.00,,SKC,0.00,VWS V14.01,2014-12-28 06:02:00,
2014-12-28 01:07:00,36.3,32.2,29.88,North,0,0.0,0.0,85,0.00,,SKC,0.00,VWS V14.01,2014-12-28 06:07:00,
2014-12-28 01:12:00,36.3,32.2,29.88,North,0,0.0,0.0,85,0.00,,SKC,0.00,VWS V14.01,2014-12-28 06:12:00,
2014-12-28 01:17:00,36.3,31.9,29.88,North,0,0.0,0.0,84,0.00,,SKC,0.00,VWS V14.01,2014-12-28 06:17:00,
2014-12-28 01:22:00,36.1,31.7,29.88,North,0,0.0,0.0,84,0.00,,SKC,0.00,VWS V14.01,2014-12-28 06:22:00,
2014-12-28 01:27:00,36.1,31.7,29.89,North,0,0.0,0.0,84,0.00,,SKC,0.00,VWS V14.01,2014-12-28 06:27:00,
2014-12-28 01:32:00,36.1,31.7,29.88,North,0,0.0,0.0,84,0.00,,SKC,0.00,VWS V14.01,2014-12-28 06:32:00,
2014-12-28 01:37:00,36.1,31.5,29.88,North,0,0.0,0.0,83,0.00,,SKC,0.00,VWS V14.01,2014-12-28 06:37:00,
2014-12-28 01:42:00,36.1,31.5,29.88,North,0,0.0,0.0,83,0.00,,SKC,0.00,VWS V14.01,2014-12-28 06:42:00,
2014-12-28 01:47:00,36.1,31.5,29.88,North,0,0.0,0.0,83,0.00,,SKC,0.00,VWS V14.01,2014-12-28 06:47:00,
2014-12-28 01:52:00,36.1,31.5,29.88,North,0,0.0,0.0,83,0.00,,SKC,0.00,VWS V14.01,2014-12-28 06:52:00,
2014-12-28 01:57:00,36.1,31.5,29.88,North,0,0.0,0.0,83,0.00,,SKC,0.00,VWS V14.01,2014-12-28 06:57:00,
2014-12-28 02:02:00,36.1,31.5,29.88,North,0,0.0,0.0,83,0.00,,SKC,0.00,VWS V14.01,2014-12-28 07:02:00,
2014-12-28 02:07:00,36.1,31.5,29.88,North,0,0.0,0.0,83,0.00,,SKC,0.00,VWS V14.01,2014-12-28 07:07:00,
2014-12-28 02:12:00,36.1,31.5,29.89,North,0,0.0,0.0,83,0.00,,SKC,0.00,VWS V14.01,2014-12-28 07:12:00,
2014-12-28 02:17:00,36.1,31.5,29.89,North,0,0.0,0.0,83,0.00,,SKC,0.00,VWS V14.01,2014-12-28 07:17:00,
2014-12-28 02:22:00,36.1,31.5,29.88,North,0,0.0,0.0,83,0.00,,SKC,0.00,VWS V14.01,2014-12-28 07:22:00,
2014-12-28 02:27:00,36.1,31.5,29.89,North,0,0.0,0.0,83,0.00,,SKC,0.00,VWS V14.01,2014-12-28 07:27:00,
2014-12-28 02:32:00,36.1,31.5,29.89,North,0,0.0,0.0,83,0.00,,SKC,0.00,VWS V14.01,2014-12-28 07:32:00,
2014-12-28 02:37:00,35.9,31.2,29.89,North,0,0.0,0.0,83,0.00,,SKC,0.00,VWS V14.01,2014-12-28 07:37:00,
2014-12-28 02:42:00,36.1,31.5,29.90,North,0,0.0,0.0,83,0.00,,SKC,0.00,VWS V14.01,2014-12-28 07:42:00,
2014-12-28 02:47:00,36.1,31.5,29.90,North,0,0.0,0.0,83,0.00,,SKC,0.00,VWS V14.01,2014-12-28 07:47:00,
2014-12-28 02:52:00,36.1,31.5,29.90,North,0,0.0,0.0,83,0.00,,SKC,0.00,VWS V14.01,2014-12-28 07:52:00,
2014-12-28 02:57:00,35.9,31.2,29.90,North,0,0.0,0.0,83,0.00,,SKC,0.00,VWS V14.01,2014-12-28 07:57:00,
2014-12-28 03:02:00,35.9,31.2,29.90,North,0,0.0,0.0,83,0.00,,SKC,0.00,VWS V14.01,2014-12-28 08:02:00,
2014-12-28 03:07:00,35.9,31.2,29.90,North,0,0.0,0.0,83,0.00,,SKC,0.00,VWS V14.01,2014-12-28 08:07:00,
2014-12-28 03:12:00,35.9,31.2,29.90,North,0,0.0,0.0,83,0.00,,SKC,0.00,VWS V14.01,2014-12-28 08:12:00,
2014-12-28 03:17:00,35.9,31.2,29.91,North,0,0.0,0.0,83,0.00,,SKC,0.00,VWS V14.01,2014-12-28 08:17:00,
2014-12-28 03:22:00,35.9,31.2,29.90,North,0,0.0,0.0,83,0.00,,SKC,0.00,VWS V14.01,2014-12-28 08:22:00,
2014-12-28 03:27:00,35.9,31.2,29.91,North,0,0.0,0.0,83,0.00,,SKC,0.00,VWS V14.01,2014-12-28 08:27:00,
2014-12-28 03:32:00,35.7,31.0,29.91,North,0,0.0,0.0,83,0.00,,SKC,0.00,VWS V14.01,2014-12-28 08:32:00,
2014-12-28 03:37:00,35.7,31.0,29.91,North,0,0.0,0.0,83,0.00,,SKC,0.00,VWS V14.01,2014-12-28 08:37:00,
2014-12-28 03:42:00,35.7,31.4,29.91,North,0,0.0,0.0,84,0.00,,SKC,0.00,VWS V14.01,2014-12-28 08:42:00,
2014-12-28 03:47:00,35.7,31.4,29.90,North,0,0.0,0.0,84,0.00,,SKC,0.00,VWS V14.01,2014-12-28 08:47:00,
2014-12-28 03:52:00,35.7,31.4,29.91,North,0,0.0,0.0,84,0.00,,SKC,0.00,VWS V14.01,2014-12-28 08:52:00,
2014-12-28 03:57:00,35.7,31.4,29.90,North,0,0.0,0.0,84,0.00,,SKC,0.00,VWS V14.01,2014-12-28 08:57:00,
2014-12-28 04:02:00,35.7,31.4,29.90,North,0,0.0,0.0,84,0.00,,SKC,0.00,VWS V14.01,2014-12-28 09:02:00,
2014-12-28 04:07:00,35.7,31.4,29.90,North,0,0.0,0.0,84,0.00,,SKC,0.00,VWS V14.01,2014-12-28 09:07:00,
2014-12-28 04:12:00,35.7,31.4,29.90,North,0,0.0,0.0,84,0.00,,SKC,0.00,VWS V14.01,2014-12-28 09:12:00,
2014-12-28 04:17:00,35.7,31.6,29.90,North,0,0.0,0.0,85,0.00,,SKC,0.00,VWS V14.01,2014-12-28 09:17:00,
2014-12-28 04:22:00,35.7,31.6,29.91,North,0,0.0,0.0,85,0.00,,SKC,0.00,VWS V14.01,2014-12-28 09:22:00,
2014-12-28 04:28:00,35.7,31.6,29.91,North,0,0.0,0.0,85,0.00,,SKC,0.00,VWS V14.01,2014-12-28 09:28:00,
2014-12-28 04:33:00,35.7,31.6,29.90,North,0,0.0,0.0,85,0.00,,SKC,0.00,VWS V14.01,2014-12-28 09:33:00,
2014-12-28 04:38:00,35.7,31.6,29.90,North,0,0.0,0.0,85,0.00,,SKC,0.00,VWS V14.01,2014-12-28 09:38:00,
2014-12-28 04:43:00,35.7,31.6,29.90,North,0,0.0,0.0,85,0.00,,SKC,0.00,VWS V14.01,2014-12-28 09:43:00,
2014-12-28 04:48:00,35.7,31.6,29.90,North,0,0.0,0.0,85,0.00,,SKC,0.00,VWS V14.01,2014-12-28 09:48:00,
2014-12-28 04:53:00,35.7,31.6,29.90,North,0,0.0,0.0,85,0.00,,SKC,0.00,VWS V14.01,2014-12-28 09:53:00,
2014-12-28 04:58:00,35.6,31.5,29.90,North,0,0.0,0.0,85,0.00,,SKC,0.00,VWS V14.01,2014-12-28 09:58:00,
2014-12-28 05:03:00,35.7,31.6,29.91,North,0,0.0,0.0,85,0.00,,SKC,0.00,VWS V14.01,2014-12-28 10:03:00,
2014-12-28 05:08:00,35.7,31.6,29.91,North,0,0.0,0.0,85,0.00,,SKC,0.00,VWS V14.01,2014-12-28 10:08:00,
2014-12-28 05:13:00,35.7,31.6,29.91,North,0,0.0,0.0,85,0.00,,SKC,0.00,VWS V14.01,2014-12-28 10:13:00,
2014-12-28 05:18:00,35.7,31.6,29.91,North,0,0.0,0.0,85,0.00,,SKC,0.00,VWS V14.01,2014-12-28 10:18:00,
2014-12-28 05:23:00,35.7,31.9,29.91,North,0,0.0,0.0,86,0.00,,SKC,0.00,VWS V14.01,2014-12-28 10:23:00,
2014-12-28 05:28:00,35.7,31.9,29.91,North,0,0.0,0.0,86,0.00,,SKC,0.00,VWS V14.01,2014-12-28 10:28:00,
2014-12-28 05:33:00,35.7,31.9,29.92,North,0,0.0,0.0,86,0.00,,SKC,0.00,VWS V14.01,2014-12-28 10:33:00,
2014-12-28 05:38:00,35.6,31.8,29.91,North,0,0.0,0.0,86,0.00,,SKC,0.00,VWS V14.01,2014-12-28 10:38:00,
2014-12-28 05:43:00,35.6,31.8,29.92,North,0,0.0,0.0,86,0.00,,SKC,0.00,VWS V14.01,2014-12-28 10:43:00,
2014-12-28 05:48:00,35.6,31.8,29.92,North,0,0.0,0.0,86,0.00,,SKC,0.00,VWS V14.01,2014-12-28 10:48:00,
2014-12-28 05:53:00,35.4,31.6,29.92,North,0,0.0,0.0,86,0.00,,SKC,0.00,VWS V14.01,2014-12-28 10:53:00,
2014-12-28 05:58:00,35.4,31.6,29.92,North,0,0.0,0.0,86,0.00,,SKC,0.00,VWS V14.01,2014-12-28 10:58:00,
2014-12-28 06:03:00,35.4,31.6,29.93,North,0,0.0,0.0,86,0.00,,SKC,0.00,VWS V14.01,2014-12-28 11:03:00,
2014-12-28 06:08:00,35.4,31.6,29.92,North,0,0.0,0.0,86,0.00,,SKC,0.00,VWS V14.01,2014-12-28 11:08:00,
2014-12-28 06:13:00,35.4,31.6,29.93,North,0,0.0,0.0,86,0.00,,SKC,0.00,VWS V14.01,2014-12-28 11:13:00,
2014-12-28 06:18:00,35.4,31.6,29.93,North,0,0.0,0.0,86,0.00,,SKC,0.00,VWS V14.01,2014-12-28 11:18:00,
2014-12-28 06:23:00,35.4,31.6,29.93,North,0,0.0,0.0,86,0.00,,SKC,0.00,VWS V14.01,2014-12-28 11:23:00,
2014-12-28 06:28:00,35.4,31.6,29.94,North,0,0.0,0.0,86,0.00,,SKC,0.00,VWS V14.01,2014-12-28 11:28:00,
2014-12-28 06:33:00,35.4,31.6,29.94,North,0,0.0,0.0,86,0.00,,SKC,0.00,VWS V14.01,2014-12-28 11:33:00,
2014-12-28 06:38:00,35.4,31.6,29.94,North,0,0.0,0.0,86,0.00,,SKC,0.00,VWS V14.01,2014-12-28 11:38:00,
2014-12-28 06:43:00,35.4,31.6,29.95,North,0,0.0,0.0,86,0.00,,SKC,0.00,VWS V14.01,2014-12-28 11:43:00,
2014-12-28 06:48:00,35.4,31.9,29.95,North,0,0.0,0.0,87,0.00,,SKC,0.00,VWS V14.01,2014-12-28 11:48:00,
2014-12-28 06:53:00,35.4,31.9,29.95,North,0,0.0,0.0,87,0.00,,SKC,0.00,VWS V14.01,2014-12-28 11:53:00,
2014-12-28 06:58:00,35.4,31.9,29.95,North,0,0.0,0.0,87,0.00,,SKC,0.00,VWS V14.01,2014-12-28 11:58:00,
2014-12-28 07:03:00,35.4,31.9,29.95,North,0,0.0,0.0,87,0.00,,SKC,0.00,VWS V14.01,2014-12-28 12:03:00,
2014-12-28 07:08:00,35.4,31.9,29.95,North,0,0.0,0.0,87,0.00,,SKC,0.00,VWS V14.01,2014-12-28 12:08:00,
2014-12-28 07:13:00,35.4,31.9,29.95,North,0,0.0,0.0,87,0.00,,SKC,0.00,VWS V14.01,2014-12-28 12:13:00,
2014-12-28 07:18:00,35.4,31.9,29.95,North,0,0.0,0.0,87,0.00,,SKC,0.00,VWS V14.01,2014-12-28 12:18:00,
2014-12-28 07:23:00,35.4,31.9,29.95,North,0,0.0,0.0,87,0.00,,SKC,0.00,VWS V14.01,2014-12-28 12:23:00,
2014-12-28 07:28:00,35.4,31.9,29.95,North,0,0.0,0.0,87,0.00,,SKC,0.00,VWS V14.01,2014-12-28 12:28:00,
2014-12-28 07:33:00,35.4,31.9,29.95,North,0,0.0,0.0,87,0.00,,SKC,0.00,VWS V14.01,2014-12-28 12:33:00,
2014-12-28 07:38:00,35.4,31.9,29.95,North,0,0.0,0.0,87,0.00,,SKC,0.00,VWS V14.01,2014-12-28 12:38:00,
2014-12-28 07:43:00,35.4,31.9,29.95,North,0,0.0,0.0,87,0.00,,SKC,0.00,VWS V14.01,2014-12-28 12:43:00,
2014-12-28 07:48:00,35.2,31.7,29.96,North,0,0.0,0.0,87,0.00,,SKC,0.00,VWS V14.01,2014-12-28 12:48:00,
2014-12-28 07:53:00,35.2,31.7,29.96,North,0,0.0,0.0,87,0.00,,SKC,0.00,VWS V14.01,2014-12-28 12:53:00,
2014-12-28 07:58:00,35.2,31.7,29.96,North,0,0.0,0.0,87,0.00,,SKC,0.00,VWS V14.01,2014-12-28 12:58:00,
2014-12-28 08:03:00,35.2,31.7,29.95,North,0,0.0,0.0,87,0.00,,SKC,0.00,VWS V14.01,2014-12-28 13:03:00,
2014-12-28 08:08:00,35.2,31.7,29.95,North,0,0.0,0.0,87,0.00,,SKC,0.00,VWS V14.01,2014-12-28 13:08:00,
2014-12-28 08:13:00,35.2,32.0,29.95,North,0,0.0,0.0,88,0.00,,SKC,0.00,VWS V14.01,2014-12-28 13:13:00,
2014-12-28 08:18:00,35.2,31.7,29.95,North,0,0.0,0.0,87,0.00,,SKC,0.00,VWS V14.01,2014-12-28 13:18:00,
2014-12-28 08:23:00,35.2,31.7,29.95,North,0,0.0,0.0,87,0.00,,SKC,0.00,VWS V14.01,2014-12-28 13:23:00,
2014-12-28 08:28:00,35.2,31.7,29.95,North,0,0.0,0.0,87,0.00,,SKC,0.00,VWS V14.01,2014-12-28 13:28:00,
2014-12-28 08:33:00,35.2,31.7,29.95,North,0,0.0,0.0,87,0.00,,SKC,0.00,VWS V14.01,2014-12-28 13:33:00,
2014-12-28 08:38:00,35.4,31.9,29.95,North,0,0.0,0.0,87,0.00,,SKC,0.00,VWS V14.01,2014-12-28 13:38:00,
2014-12-28 08:43:00,35.4,31.9,29.95,North,0,0.0,0.0,87,0.00,,SKC,0.00,VWS V14.01,2014-12-28 13:43:00,
2014-12-28 08:48:00,35.4,31.9,29.96,North,0,0.0,0.0,87,0.00,,SKC,0.00,VWS V14.01,2014-12-28 13:48:00,
2014-12-28 08:53:00,35.2,31.7,29.96,NW,315,5.3,5.3,87,0.00,,SKC,0.00,VWS V14.01,2014-12-28 13:53:00,
2014-12-28 08:58:00,34.7,31.2,29.97,NNW,338,1.5,5.3,87,0.00,,SKC,0.00,VWS V14.01,2014-12-28 13:58:00,
2014-12-28 09:03:00,34.5,31.0,29.97,NW,315,0.8,0.8,87,0.00,,SKC,0.00,VWS V14.01,2014-12-28 14:03:00,
2014-12-28 09:08:00,34.5,31.3,29.97,NW,315,0.8,0.8,88,0.00,,SKC,0.00,VWS V14.01,2014-12-28 14:08:00,
2014-12-28 09:13:00,34.5,31.3,29.98,NW,315,0.8,0.8,88,0.00,,SKC,0.00,VWS V14.01,2014-12-28 14:13:00,
2014-12-28 09:18:00,34.5,31.3,29.98,NW,315,0.8,0.8,88,0.00,,SKC,0.00,VWS V14.01,2014-12-28 14:18:00,
2014-12-28 09:23:00,34.5,31.0,29.98,NW,315,0.8,0.8,87,0.00,,SKC,0.00,VWS V14.01,2014-12-28 14:23:00,
2014-12-28 09:28:00,34.7,31.2,29.97,NW,315,0.8,0.8,87,0.00,,SKC,0.00,VWS V14.01,2014-12-28 14:28:00,
2014-12-28 09:33:00,34.8,31.3,29.98,NW,315,0.8,0.8,87,0.00,,SKC,0.00,VWS V14.01,2014-12-28 14:33:00,
2014-12-28 09:38:00,34.8,31.3,29.98,NW,315,0.8,0.8,87,0.00,,SKC,0.00,VWS V14.01,2014-12-28 14:38:00,
2014-12-28 09:43:00,34.8,31.0,29.98,NW,315,0.8,0.8,86,0.00,,SKC,0.00,VWS V14.01,2014-12-28 14:43:00,
2014-12-28 09:48:00,35.0,31.2,29.98,NW,315,0.8,0.8,86,0.00,,SKC,0.00,VWS V14.01,2014-12-28 14:48:00,
2014-12-28 09:53:00,35.2,31.4,29.98,NW,315,0.8,0.8,86,0.00,,SKC,0.00,VWS V14.01,2014-12-28 14:53:00,
2014-12-28 09:58:00,35.4,31.4,29.99,NW,315,0.8,0.8,85,0.00,,SKC,0.00,VWS V14.01,2014-12-28 14:58:00,
2014-12-28 10:03:00,35.4,31.1,29.99,NW,315,0.8,0.8,84,0.00,,SKC,0.00,VWS V14.01,2014-12-28 15:03:00,
2014-12-28 10:08:00,35.4,31.1,29.99,NW,315,0.8,0.8,84,0.00,,SKC,0.00,VWS V14.01,2014-12-28 15:08:00,
2014-12-28 10:13:00,35.4,30.8,29.99,NW,315,0.8,0.8,83,0.00,,SKC,0.00,VWS V14.01,2014-12-28 15:13:00,
2014-12-28 10:18:00,35.4,30.8,29.99,NW,315,0.8,0.8,83,0.00,,SKC,0.00,VWS V14.01,2014-12-28 15:18:00,
2014-12-28 10:23:00,35.4,30.8,30.00,NW,315,0.8,0.8,83,0.00,,SKC,0.00,VWS V14.01,2014-12-28 15:23:00,
2014-12-28 10:28:00,35.7,31.0,30.00,NW,315,0.8,0.8,83,0.00,,SKC,0.00,VWS V14.01,2014-12-28 15:28:00,
2014-12-28 10:33:00,35.7,31.0,29.99,NW,315,0.8,0.8,83,0.00,,SKC,0.00,VWS V14.01,2014-12-28 15:33:00,
2014-12-28 10:38:00,36.1,31.1,30.00,NW,315,0.8,0.8,82,0.00,,SKC,0.00,VWS V14.01,2014-12-28 15:38:00,
2014-12-28 10:43:00,36.3,31.3,30.00,NW,315,0.8,0.8,82,0.00,,SKC,0.00,VWS V14.01,2014-12-28 15:43:00,
2014-12-28 10:48:00,36.5,31.2,30.00,NW,315,0.8,0.8,81,0.00,,SKC,0.00,VWS V14.01,2014-12-28 15:48:00,
2014-12-28 10:53:00,36.3,31.0,30.01,NW,315,0.8,0.8,81,0.00,,SKC,0.00,VWS V14.01,2014-12-28 15:53:00,
2014-12-28 10:58:00,36.3,31.0,30.01,NW,315,0.8,0.8,81,0.00,,SKC,0.00,VWS V14.01,2014-12-28 15:58:00,
2014-12-28 11:03:00,36.5,31.2,30.00,NW,315,0.8,0.8,81,0.00,,SKC,0.00,VWS V14.01,2014-12-28 16:03:00,
2014-12-28 11:08:00,36.5,30.9,30.00,NW,315,0.8,0.8,80,0.00,,SKC,0.00,VWS V14.01,2014-12-28 16:08:00,
2014-12-28 11:13:00,36.3,30.7,30.00,NW,315,1.1,1.1,80,0.00,,SKC,0.00,VWS V14.01,2014-12-28 16:13:00,
2014-12-28 11:18:00,36.5,30.6,30.00,NW,315,1.1,1.1,79,0.00,,SKC,0.00,VWS V14.01,2014-12-28 16:18:00,
2014-12-28 11:23:00,36.6,30.7,29.99,NW,315,1.1,1.1,79,0.00,,SKC,0.00,VWS V14.01,2014-12-28 16:23:00,
2014-12-28 11:28:00,36.8,30.6,29.99,NW,315,1.1,1.1,78,0.00,,SKC,0.00,VWS V14.01,2014-12-28 16:28:00,
2014-12-28 11:33:00,37.0,30.8,29.99,NNW,338,8.7,8.7,78,0.00,,SKC,0.00,VWS V14.01,2014-12-28 16:33:00,
2014-12-28 11:38:00,37.0,30.5,29.99,NNW,338,0.0,8.7,77,0.00,,SKC,0.00,VWS V14.01,2014-12-28 16:38:00,
2014-12-28 11:43:00,37.2,30.7,29.99,NNW,338,0.0,8.7,77,0.00,,SKC,0.00,VWS V14.01,2014-12-28 16:43:00,
2014-12-28 11:48:00,37.0,30.5,29.99,NNW,338,0.0,0.0,77,0.00,,SKC,0.00,VWS V14.01,2014-12-28 16:48:00,
2014-12-28 11:53:00,36.8,30.3,29.99,NNW,338,0.0,0.0,77,0.00,,SKC,0.00,VWS V14.01,2014-12-28 16:53:00,
2014-12-28 11:58:00,37.0,30.5,29.99,NNW,338,0.0,0.0,77,0.00,,SKC,0.00,VWS V14.01,2014-12-28 16:58:00,
2014-12-28 12:03:00,37.2,30.4,29.98,NNW,338,0.0,0.0,76,0.00,,SKC,0.00,VWS V14.01,2014-12-28 17:03:00,
2014-12-28 12:08:00,37.2,30.4,29.98,NNW,338,1.3,2.2,76,0.00,,SKC,0.00,VWS V14.01,2014-12-28 17:08:00,
2014-12-28 12:13:00,37.2,30.0,29.98,NNW,338,5.5,5.5,75,0.00,,SKC,0.00,VWS V14.01,2014-12-28 17:13:00,
2014-12-28 12:18:00,37.2,30.0,29.98,NW,315,0.8,2.9,75,0.00,,SKC,0.00,VWS V14.01,2014-12-28 17:18:00,
2014-12-28 12:24:00,37.2,29.7,29.98,NW,315,5.3,5.3,74,0.00,,SKC,0.00,VWS V14.01,2014-12-28 17:24:00,
2014-12-28 12:29:00,37.2,29.7,29.98,NW,315,5.3,5.3,74,0.00,,SKC,0.00,VWS V14.01,2014-12-28 17:29:00,
2014-12-28 12:34:00,37.5,30.0,29.98,NW,315,5.3,5.3,74,0.00,,SKC,0.00,VWS V14.01,2014-12-28 17:34:00,
2014-12-28 12:39:00,37.5,30.0,29.98,NW,315,5.1,5.3,74,0.00,,SKC,0.00,VWS V14.01,2014-12-28 17:39:00,
2014-12-28 12:44:00,38.3,30.4,29.97,WNW,292,3.1,10.0,73,0.00,,SKC,0.00,VWS V14.01,2014-12-28 17:44:00,
2014-12-28 12:49:00,39.0,31.1,29.97,NNW,338,6.9,6.9,73,0.02,,SKC,0.02,VWS V14.01,2014-12-28 17:49:00,
2014-12-28 12:54:00,39.3,31.0,29.97,WNW,292,0.0,6.9,72,0.02,,SKC,0.02,VWS V14.01,2014-12-28 17:54:00,
2014-12-28 12:59:00,39.3,30.7,29.97,WNW,292,0.0,6.9,71,0.02,,SKC,0.02,VWS V14.01,2014-12-28 17:59:00,